Location: Newark
(41.0400°S, 62.7845°W)
Time: 16:41:10
(UTC+00:00)

Vanguard 2 Rocket - Pass Details

Date: 30 November 2021
Orbit: 553 x 3325 km, 32.9° (Epoch: 23 January)

Event Time Altitude Azimuth Distance (km) Brightness Sun altitude
Rises 12:09:31 0° 286° (WNW) 6,552 10.8 38.2°
Reaches altitude 10° 12:14:34 10° 289° (WNW) 5,144 10.4 39.2°
Maximum altitude 12:27:33 53° 360° (N) 1,924 9.2 41.6°
Drops below altitude 10° 12:34:54 10° 74° (ENE) 3,001 10.7 43.0°
Sets 12:37:06 0° 79° (E) 3,704 10.8 43.4°
